Location: Shepherdstown, WV
(39.4326°N, 77.8042°W)
Time: 06:13:22
(UTC-04:00)

Vanguard 1 - Pass Details

Date: 07 August 2021
Orbit: 652 x 3831 km, 34.3° (Epoch: 24 September)

Event Time Altitude Azimuth Distance (km) Brightness Sun altitude
Rises 10:57:49 0° 250° (WSW) 2,994 12.3 51.9°
Reaches altitude 10° 11:00:08 10° 244° (WSW) 2,046 11.6 52.3°
Maximum altitude 11:04:20 44° 171° (S) 951 11.1 53.0°
Drops below altitude 10° 11:09:28 10° 99° (E) 2,503 12.9 53.8°
Sets 11:12:36 0° 94° (E) 3,766 13.5 54.4°
